Weather History for CYYJ - November, 2013

Change the Weather History Date:

Wednesday, November 13, 2013

  Actual Average Record
Temperature  
Mean Temperature 48 °F -  
Max Temperature 57 °F 47 °F 57 °F (2013)
Min Temperature 38 °F 35 °F 30 °F (2014)
Degree Days  
Heating Degree Days 18    
Moisture  
Dew Point 45 °F    
Average Humidity 83    
Maximum Humidity 100    
Minimum Humidity 65    
Precipitation  
Precipitation 0.01 in 0.19 in - ()
Sea Level Pressure  
Sea Level Pressure 30.37 in    
Wind  
Wind Speed 7 mph ()    
Max Wind Speed 14 mph    
Max Gust Speed 20 mph    
Averages and records for this station are not official NWS values.
T = Trace of Precipitation, MM = Missing Value Source: Averaged Metar Reports

Daily Weather History Graph

Daily Weather History Graph

Search for Another Location

Airport or City:

Trip Planner

Search our weather history database for the weather conditions in past years. The results will help you decide how hot, cold, wet, or windy it might be!

Date:

Astronomy

Nov. 13, 2013 Rise Set
Actual Time 7:19 AM PST 4:35 PM PST
Civil Twilight 6:45 AM PST 5:10 PM PST
Nautical Twilight 6:07 AM PST 5:48 PM PST
Astronomical Twilight 5:30 AM PST 6:25 PM PST
Moon 2:42 PM PST (11/13) 3:00 AM PST (11/13)
Length of Visible Light 10h 24m
Length of Day
9h 16m
Waxing Gibbous, 85% of the Moon is Illuminated
Nov 13
Waxing Gibbous
Nov 17
Full
Nov 25
Last Quarter
Dec 2
New
Dec 9
First Quarter

Hourly Weather History & Observations

Time (PST) Temp. Windchill Dew Point Humidity Pressure Visibility Wind Dir Wind Speed Gust Speed Precip Events Conditions
12:00 AM 53.6 °F - 48.2 °F 82% 30.32 in 30.0 mi South 10.4 mph 18.4 mph N/A   Mostly Cloudy
1:00 AM 51.8 °F - 46.4 °F 82% 30.33 in 30.0 mi South 6.9 mph - N/A   Mostly Cloudy
2:00 AM 50.0 °F - 48.2 °F 94% 30.33 in 30.0 mi SE 8.1 mph - N/A   Mostly Cloudy
3:00 AM 48.2 °F - 48.2 °F 100% 30.33 in 30.0 mi SSE 8.1 mph - N/A   Partly Cloudy
4:00 AM 49 °F - 46 °F 86% 30.34 in 28 mi SSE 5.8 mph - -   Partly Cloudy
4:00 AM 48.2 °F - 46.4 °F 93% 30.34 in 30.0 mi SSE 6.9 mph - N/A   Partly Cloudy
5:00 AM 42.8 °F 41.1 °F 41.0 °F 93% 30.36 in 30.0 mi North 3.5 mph - N/A   Partly Cloudy
6:00 AM 41.0 °F - 41.0 °F 100% 30.37 in 30.0 mi Variable 2.3 mph - N/A   Partly Cloudy
7:00 AM 41.0 °F - 41.0 °F 100% 30.38 in 30.0 mi Calm Calm - N/A   Partly Cloudy
8:00 AM 41.0 °F 38.0 °F 41.0 °F 100% 30.39 in 30.0 mi SSW 4.6 mph - N/A   Scattered Clouds
9:00 AM 53.6 °F - 48.2 °F 82% 30.40 in 30.0 mi Calm Calm - N/A   Mostly Cloudy
10:00 AM 55 °F - 47 °F 68% 30.40 in 28 mi SW 9.2 mph - -   Partly Cloudy
10:00 AM 55.4 °F - 48.2 °F 77% 30.40 in 30.0 mi SSW 9.2 mph - N/A   Scattered Clouds
11:00 AM 55.4 °F - 46.4 °F 72% 30.41 in 30.0 mi SSW 8.1 mph - N/A   Scattered Clouds
12:00 PM 55.4 °F - 46.4 °F 72% 30.41 in 30.0 mi SSW 11.5 mph - N/A   Mostly Cloudy
12:34 PM 55.4 °F - 46.4 °F 72% 30.41 in 30.0 mi SSW 13.8 mph - N/A Rain Light Rain
1:00 PM 55.4 °F - 46.4 °F 72% 30.40 in 30.0 mi SSW 11.5 mph - N/A   Mostly Cloudy
2:00 PM 55.4 °F - 48.2 °F 77% 30.39 in 30.0 mi SW 8.1 mph - N/A   Mostly Cloudy
3:00 PM 55.4 °F - 44.6 °F 67% 30.39 in 30.0 mi SSW 10.4 mph 19.6 mph N/A   Mostly Cloudy
4:00 PM 53 °F - 45 °F 65% 30.39 in 28 mi SSW 11.5 mph - -   Partly Cloudy
4:00 PM 53.6 °F - 44.6 °F 72% 30.38 in 30.0 mi SSW 12.7 mph - N/A   Mostly Cloudy
5:00 PM 51.8 °F - 44.6 °F 76% 30.38 in 30.0 mi SSW 11.5 mph - N/A   Mostly Cloudy
6:00 PM 50.0 °F - 44.6 °F 82% 30.38 in 30.0 mi South 6.9 mph - N/A   Mostly Cloudy
7:00 PM 48.2 °F - 42.8 °F 82% 30.36 in 30.0 mi SW 4.6 mph - N/A   Mostly Cloudy
8:00 PM 44.6 °F 40.7 °F 42.8 °F 93% 30.35 in 30.0 mi SW 6.9 mph - N/A   Scattered Clouds
9:00 PM 44.6 °F 40.7 °F 41.0 °F 87% 30.35 in 30.0 mi West 6.9 mph - N/A   Mostly Cloudy
10:00 PM 46 °F - 43 °F 84% 30.34 in 28 mi West 6.9 mph - -   Scattered Clouds
10:00 PM 46.4 °F 43.5 °F 42.8 °F 87% 30.33 in 30.0 mi WSW 5.8 mph - N/A   Mostly Cloudy
11:00 PM 44.6 °F - 42.8 °F 93% 30.32 in 30.0 mi SSE 2.3 mph - N/A   Mostly Cloudy